Location: Góry Miechowskie
(50.3599°N, 20.1803°E)
Time: 20:21:16
(UTC+00:00)

Meteor 1-11 - Pass Details

Date: 11 September 2024
Orbit: 841 x 884 km, 81.2° (Epoch: 09 October)

Event Time Altitude Azimuth Distance (km) Brightness Sun altitude
Rises 22:20:43 0° 351° (N) 3,480 8.4 -35.5°
Reaches altitude 10° 22:23:19 10° 359° (N) 2,543 7.5 -35.5°
Enters shadow 22:27:20 35° 35° (NE) 1,382 5.5 -35.5°
